#timestamp,LO_Frequency,Hit,StdDev 
1715227215.9,286047000.6,N
1715227235.7,286047002.4,Y
1715227255.6,286047000.0,P
1715227275.4,286047002.8,P
1715227295.2,286047000.2,N
1715227315.1,286047002.4,N
1715227316.0,286047002.4,N
1715227335.8,286047000.2,N
1715227355.7,286047002.2,N
1715227375.5,286047002.8,N
1715227395.3,286047004.4,Y
1715227415.2,286046999.9,P
1715227435.0,286046999.7,N
1715227435.9,286046999.7,N
1715227455.8,286047002.2,N
1715227475.6,286047002.3,N
1715227495.4,286046999.7,N
1715227515.3,286047002.8,N
1715227535.1,286047002.7,N
1715227555.8,286047002.6,N
1715227575.7,286047001.4,N
1715227595.5,286047004.4,Y
1715227615.4,286047002.6,P
1715227635.2,286047001.7,N
1715227655.0,286047002.0,P
1715227655.9,286047002.0,Y
1715227675.8,286047000.5,P
1715227695.6,286046999.7,N
1715227715.5,286047000.0,N
1715227735.3,286047002.4,N
1715227755.1,286047001.8,N
1715227775.9,286047001.6,N
1715227825.7,286046999.7,E
1715227835.7,286047002.1,N
1715227855.5,286047001.9,P
1715227875.3,286047001.5,P
1715227895.2,286047001.8,Y
1715227915.0,286047000.6,P
1715227915.9,286047000.6,N
1715227935.7,286047001.0,N
1715227955.6,286047001.1,N
1715227975.4,286047000.8,N
1715227995.3,286047000.7,N
1715228015.1,286046998.3,Y
1715228016.0,286046998.3,P
1715228035.8,286046998.7,N
1715228055.7,286046998.1,N
1715228075.5,286046998.6,N
1715228095.3,286046998.9,N
1715228115.2,286047001.0,N
1715228135.0,286047001.1,N
1715228135.9,286047001.1,N
1715228155.8,286046998.1,N
1715228175.6,286047000.9,N
1715228195.4,286047001.2,N
1715228215.3,286047001.1,N
1715228235.1,286047000.6,N
1715228255.8,286047001.1,N
1715228275.7,286047000.5,N
1715228295.5,286047000.9,N
1715228315.4,286047000.7,N
1715228335.2,286046998.2,N
1715228355.0,286046998.4,N
1715228355.9,286046998.4,N
1715228375.8,286046998.6,N
1715228395.6,286046998.6,N
1715228415.4,286047000.7,N
1715228435.3,286047000.9,N
1715228455.1,286047000.7,N
1715228475.9,286046998.9,N
1715228495.7,286046998.8,N
1715228515.5,286046998.8,N
1715228535.4,286046998.8,N
1715228555.2,286046998.8,N
1715228575.0,286046998.4,N
1715228575.9,286046998.4,N
1715228595.8,286047000.6,N
1715228615.6,286047001.0,N
1715228635.5,286047001.2,N
1715228655.3,286046999.5,N
1715228675.1,286046998.9,N
1715228695.9,286046998.1,N
1715228715.7,286047000.4,N
1715228735.5,286047000.0,N
1715228755.4,286047000.8,N
1715228775.2,286047000.7,N
1715228795.0,286047001.1,N
1715228796.0,286047001.1,N
1715228815.8,286047001.2,N
1715228835.6,286047000.8,N
1715228855.5,286047000.8,N
1715228875.3,286046998.6,N
1715228895.1,286046998.5,N
1715228915.9,286047001.1,N
1715228935.7,286047000.7,N
1715228955.5,286046998.5,N
1715228975.4,286046999.7,N
1715228995.2,286046999.9,N
1715229015.1,286047002.3,N
1715229016.0,286047002.3,N
1715229035.8,286047000.4,N
1715229055.6,286047000.6,N
1715229075.5,286047000.3,N
1715229095.3,286047000.2,N
1715229115.1,286047000.1,N
1715229135.9,286047002.4,N
1715229155.7,286046999.7,N
1715229175.6,286046999.7,N
1715229195.4,286047002.7,N
1715229215.2,286047000.9,N
1715229235.1,286047000.1,N
1715229236.0,286047000.1,N
1715229255.8,286046999.8,N
1715229275.7,286047000.7,N
1715229295.5,286046999.7,N
1715229315.3,286047000.6,N
1715229335.2,286047000.7,N
1715229355.0,286046998.1,N
1715229355.9,286046998.1,N
1715229375.7,286046998.2,N
1715229395.6,286046999.0,N
1715229415.4,286046999.5,N
1715229435.3,286046999.4,N
1715229455.1,286046998.8,N
1715229456.0,286046998.8,N
1715229475.8,286047001.1,N
1715229495.7,286046998.8,N
1715229515.5,286046999.1,N
1715229535.3,286046996.7,N
1715229555.2,286046997.0,N
1715229575.0,286046996.7,N
1715229575.9,286046996.7,N
1715229595.8,286046997.2,N
1715229615.6,286046997.5,N
1715229635.4,286046998.0,N
1715229655.3,286046997.5,N
1715229675.1,286046997.5,N
1715229695.9,286046995.7,N
1715229715.7,286046995.5,N
1715229735.5,286046995.9,N
1715229755.4,286046993.7,Y
1715229775.2,286046996.4,P
1715229795.0,286046993.7,P
1715229795.9,286046993.7,P
1715229815.8,286046993.4,Y
1715229835.6,286047000.9,P
1715229855.5,286047000.7,N
1715229875.3,286047001.2,N
1715229895.1,286046998.6,N
1715229915.9,286046996.6,N
1715229935.7,286046999.6,N
1715229955.5,286046996.6,N
1715229975.4,286046997.8,N
1715229995.2,286046998.0,N
1715230015.1,286046995.3,N
1715230016.0,286046995.3,N
1715230035.8,286046995.5,N
1715230055.6,286046996.1,N
1715230075.5,286046995.2,N
1715230095.3,286046995.2,N
1715230115.1,286046993.3,Y
1715230135.9,286046998.0,P
1715230155.7,286046995.2,P
1715230175.6,286046995.2,P
1715230195.4,286046996.1,Y
1715230215.2,286046999.6,P
1715230235.1,286046996.9,N
1715230236.0,286046996.9,N
1715230255.8,286046997.0,N
1715230275.6,286046997.2,N
1715230295.5,286046997.3,N
1715230315.3,286046997.7,N
1715230335.2,286046995.8,Y
1715230355.9,286046999.6,P
1715230375.7,286046996.6,P
1715230395.6,286046997.7,N
1715230415.4,286046997.9,N
1715230435.2,286046997.6,N
1715230455.1,286046998.0,N
1715230456.0,286046998.0,N
1715230475.8,286046995.5,Y
1715230495.7,286046996.9,P
1715230515.5,286046997.1,P
1715230535.3,286046997.3,P
1715230555.2,286046997.5,Y
1715230575.0,286046998.4,P
1715230575.9,286046998.4,N
1715230595.8,286046999.6,N
1715230615.6,286046999.5,N
1715230635.4,286046999.6,N
1715230655.3,286046996.9,Y
1715230675.1,286047001.2,P
1715230695.8,286046998.5,N
1715230715.7,286046996.5,N
1715230735.5,286046999.6,N
1715230755.4,286046999.6,N
1715230775.2,286046997.3,N
1715230795.0,286046997.9,N
1715230795.9,286046997.9,N
